Location: Plainartige
(45.6866°N, 1.7993°E)
Time: 10:10:58
(UTC+00:00)

Tiros 1 - Pass Details

Date: 30 May 2022
Orbit: 629 x 663 km, 48.4° (Epoch: 04 July)

Event Time Altitude Azimuth Distance (km) Brightness Sun altitude
Exits shadow 00:54:05 23° 266° (W) 1,348 8.6 -21.0°
Maximum altitude 00:56:56 73° 347° (NNW) 665 7.2 -20.9°
Drops below altitude 10° 01:01:35 10° 73° (ENE) 2,025 10.1 -20.7°
Sets 01:03:56 0° 75° (ENE) 2,940 11.0 -20.5°
